Total_Precipitation_Accumulation
0.27 0.32 0.42 0.54 0.46 0.32 0.14 0.04 0.01 0.02 0.03 0.03 0.03 0.04 0.04 0.07 0.10 0.13 0.10 0.08 0.08 0.09 0.14 0.26 0.39 0.40 0.36 0.32 0.28 0.25 0.25 0.26 0.26 0.28 0.29 0.29 0.27 0.28 0.35 0.37 0.38 0.39 0.40 0.47 0.53 0.50 0.46 0.43 0.30
0.32 0.46 0.66 0.74 0.50 0.29 0.14 0.05 0.02 0.02 0.03 0.03 0.03 0.04 0.06 0.08 0.10 0.10 0.11 0.13 0.16 0.15 0.17 0.27 0.39 0.42 0.39 0.34 0.28 0.28 0.30 0.31 0.34 0.35 0.37 0.39 0.36 0.36 0.39 0.43 0.40 0.37 0.37 0.41 0.40 0.33 0.28 0.25 0.19
0.51 0.71 0.90 0.81 0.56 0.30 0.14 0.05 0.03 0.03 0.04 0.03 0.04 0.06 0.12 0.12 0.12 0.14 0.15 0.19 0.24 0.26 0.24 0.33 0.43 0.49 0.46 0.40 0.33 0.32 0.34 0.37 0.38 0.41 0.46 0.49 0.49 0.48 0.46 0.44 0.39 0.34 0.30 0.27 0.22 0.18 0.18 0.17 0.14
0.82 1.06 1.10 0.87 0.51 0.23 0.11 0.08 0.04 0.05 0.04 0.04 0.05 0.10 0.15 0.13 0.15 0.18 0.22 0.27 0.27 0.34 0.37 0.44 0.53 0.59 0.58 0.50 0.43 0.40 0.42 0.44 0.45 0.45 0.49 0.56 0.61 0.61 0.55 0.45 0.34 0.27 0.23 0.20 0.17 0.15 0.15 0.13 0.11
1.12 1.25 1.14 0.81 0.39 0.18 0.09 0.08 0.07 0.07 0.07 0.07 0.09 0.12 0.18 0.17 0.21 0.32 0.30 0.32 0.30 0.35 0.43 0.54 0.64 0.65 0.66 0.61 0.57 0.55 0.55 0.54 0.53 0.51 0.54 0.59 0.59 0.57 0.52 0.39 0.28 0.23 0.21 0.20 0.17 0.16 0.16 0.15 0.11
1.29 1.37 1.10 0.67 0.31 0.15 0.09 0.09 0.11 0.10 0.09 0.12 0.16 0.21 0.28 0.30 0.36 0.44 0.46 0.41 0.33 0.35 0.50 0.64 0.78 0.74 0.69 0.65 0.63 0.64 0.65 0.65 0.64 0.62 0.61 0.62 0.61 0.55 0.47 0.38 0.30 0.25 0.23 0.23 0.22 0.19 0.17 0.17 0.15
1.22 1.22 0.89 0.49 0.27 0.17 0.11 0.11 0.15 0.15 0.13 0.16 0.20 0.28 0.40 0.48 0.59 0.59 0.64 0.63 0.53 0.51 0.63 0.76 0.89 0.89 0.83 0.76 0.69 0.67 0.70 0.71 0.71 0.70 0.68 0.59 0.53 0.50 0.46 0.39 0.32 0.29 0.26 0.25 0.23 0.22 0.19 0.18 0.18
1.18 1.35 0.82 0.47 0.30 0.21 0.13 0.13 0.16 0.20 0.20 0.18 0.25 0.33 0.44 0.59 0.78 0.84 0.91 0.96 0.84 0.77 0.85 0.95 1.01 0.96 0.88 0.82 0.77 0.72 0.71 0.73 0.74 0.73 0.65 0.57 0.50 0.48 0.44 0.36 0.31 0.27 0.25 0.25 0.23 0.22 0.19 0.19 0.17
1.12 1.42 0.89 0.46 0.36 0.27 0.21 0.19 0.19 0.23 0.29 0.26 0.28 0.35 0.49 0.72 1.02 1.13 1.26 1.28 1.20 1.08 1.10 1.16 1.18 1.13 1.02 0.92 0.84 0.80 0.74 0.74 0.75 0.70 0.61 0.58 0.57 0.51 0.42 0.31 0.25 0.24 0.24 0.23 0.23 0.22 0.20 0.17 0.14
1.10 1.13 0.77 0.47 0.41 0.38 0.35 0.30 0.31 0.38 0.43 0.39 0.36 0.50 0.72 1.05 1.36 1.38 1.27 1.32 1.29 1.25 1.25 1.28 1.27 1.20 1.15 1.05 0.94 0.93 0.84 0.75 0.74 0.64 0.62 0.63 0.60 0.53 0.39 0.33 0.28 0.26 0.24 0.25 0.27 0.27 0.24 0.18 0.13
0.80 0.69 0.58 0.53 0.47 0.47 0.45 0.42 0.38 0.47 0.46 0.44 0.37 0.51 0.82 1.25 1.59 1.72 1.67 1.49 1.44 1.39 1.41 1.45 1.42 1.34 1.22 1.20 1.05 0.96 0.90 0.81 0.76 0.66 0.66 0.68 0.70 0.63 0.56 0.47 0.41 0.38 0.31 0.31 0.30 0.31 0.23 0.16 0.13
0.58 0.47 0.53 0.62 0.55 0.50 0.49 0.49 0.46 0.50 0.46 0.44 0.44 0.51 0.79 1.17 1.56 1.78 1.96 1.81 1.75 1.67 1.54 1.59 1.57 1.50 1.36 1.25 1.16 1.06 0.97 0.88 0.79 0.67 0.63 0.67 0.66 0.62 0.56 0.46 0.40 0.38 0.31 0.30 0.30 0.26 0.20 0.17 0.14
0.48 0.48 0.51 0.61 0.58 0.50 0.51 0.52 0.53 0.53 0.52 0.53 0.58 0.71 0.87 1.18 1.60 1.91 2.20 2.22 2.09 1.92 1.78 1.77 1.69 1.59 1.47 1.32 1.18 1.09 1.07 1.00 0.89 0.84 0.74 0.68 0.61 0.52 0.49 0.45 0.44 0.41 0.33 0.28 0.29 0.25 0.23 0.21 0.19
0.44 0.50 0.54 0.59 0.63 0.56 0.58 0.53 0.54 0.55 0.58 0.67 0.69 0.77 0.93 1.24 1.59 1.93 2.22 2.34 2.17 2.14 2.11 2.06 1.91 1.78 1.64 1.44 1.22 1.10 1.10 1.11 1.10 0.98 0.80 0.77 0.71 0.61 0.53 0.50 0.49 0.44 0.40 0.36 0.34 0.30 0.29 0.27 0.24
0.50 0.61 0.64 0.64 0.64 0.62 0.64 0.65 0.54 0.52 0.61 0.72 0.71 0.76 0.88 1.14 1.52 1.80 1.98 2.11 2.16 2.13 2.27 2.30 2.18 2.07 1.89 1.68 1.47 1.22 1.18 1.17 1.15 1.09 0.94 0.86 0.83 0.79 0.69 0.60 0.53 0.45 0.43 0.44 0.44 0.43 0.40 0.34 0.30
0.78 0.85 0.79 0.60 0.62 0.61 0.72 0.72 0.50 0.50 0.60 0.70 0.73 0.75 0.85 0.98 1.35 1.69 1.83 1.98 2.18 2.15 2.20 2.36 2.38 2.30 2.18 1.97 1.75 1.44 1.27 1.23 1.16 1.11 1.05 0.95 0.89 0.85 0.83 0.72 0.62 0.56 0.53 0.51 0.51 0.49 0.46 0.41 0.37
1.10 0.89 0.60 0.52 0.55 0.59 0.65 0.68 0.51 0.45 0.55 0.63 0.72 0.74 0.81 0.89 1.12 1.53 1.74 1.83 2.09 2.17 2.23 2.38 2.49 2.52 2.54 2.43 2.24 1.87 1.53 1.42 1.35 1.24 1.12 1.06 1.01 0.93 0.89 0.81 0.70 0.68 0.66 0.57 0.52 0.50 0.46 0.45 0.44
0.76 0.56 0.44 0.48 0.49 0.50 0.52 0.58 0.53 0.47 0.52 0.58 0.70 0.78 0.83 0.86 0.95 1.26 1.62 1.74 2.11 2.38 2.47 2.45 2.59 2.76 2.86 2.90 2.74 2.50 2.03 1.68 1.54 1.39 1.27 1.19 1.13 1.06 0.99 0.94 0.85 0.80 0.82 0.76 0.66 0.58 0.54 0.49 0.46
0.55 0.49 0.41 0.40 0.40 0.48 0.47 0.51 0.54 0.53 0.53 0.61 0.73 0.79 0.82 0.82 0.89 1.16 1.48 1.70 2.03 2.44 2.62 2.63 2.60 2.80 3.04 2.93 2.68 2.43 2.16 1.90 1.70 1.57 1.46 1.37 1.28 1.20 1.10 0.97 0.96 0.94 0.89 0.84 0.81 0.78 0.74 0.69 0.67
0.68 0.62 0.49 0.46 0.43 0.50 0.48 0.50 0.49 0.53 0.54 0.59 0.67 0.73 0.73 0.68 0.78 1.04 1.30 1.56 1.75 2.25 2.56 2.57 2.66 2.83 3.03 2.94 2.79 2.68 2.55 2.31 2.08 1.92 1.66 1.46 1.36 1.28 1.24 1.12 0.99 0.98 0.98 0.94 0.91 0.90 0.87 0.83 0.84
0.76 0.65 0.52 0.52 0.57 0.53 0.49 0.53 0.44 0.45 0.49 0.50 0.62 0.69 0.67 0.63 0.71 0.89 1.09 1.33 1.47 1.76 2.17 2.35 2.41 2.64 2.80 3.01 3.28 3.23 3.06 2.66 2.21 1.91 1.79 1.65 1.60 1.50 1.38 1.36 1.25 1.10 1.05 0.98 0.92 0.88 0.89 0.88 0.87
0.76 0.52 0.53 0.54 0.67 0.69 0.53 0.69 0.47 0.41 0.46 0.48 0.59 0.67 0.67 0.64 0.68 0.83 0.98 1.08 1.25 1.41 1.73 2.11 2.33 2.47 2.52 2.64 2.96 3.08 2.91 2.52 2.13 1.89 1.88 1.92 1.85 1.80 1.72 1.60 1.53 1.38 1.24 1.12 1.07 1.02 0.99 1.01 0.98
0.68 0.49 0.58 0.64 0.72 0.72 0.50 0.60 0.51 0.42 0.49 0.52 0.59 0.67 0.69 0.70 0.75 0.83 0.89 0.90 1.00 1.20 1.51 1.83 2.09 2.32 2.36 2.31 2.45 2.71 2.82 2.69 2.48 2.26 2.12 2.03 1.95 1.85 1.81 1.78 1.71 1.58 1.47 1.37 1.32 1.26 1.19 1.17 1.13
0.75 0.78 0.90 0.98 1.17 1.12 0.49 0.49 0.47 0.46 0.56 0.56 0.56 0.66 0.73 0.79 0.81 0.82 0.84 0.83 0.89 1.02 1.25 1.51 1.76 2.09 2.26 2.21 2.26 2.36 2.44 2.54 2.47 2.27 2.22 2.13 2.09 1.96 1.81 1.77 1.77 1.72 1.66 1.60 1.56 1.53 1.43 1.34 1.27
1.17 1.56 1.92 1.87 1.65 0.95 0.29 0.34 0.48 0.43 0.49 0.52 0.56 0.64 0.69 0.71 0.71 0.70 0.69 0.70 0.80 0.93 1.04 1.24 1.37 1.63 1.91 2.02 2.06 2.09 2.19 2.25 2.32 2.32 2.27 2.23 2.09 1.94 1.85 1.78 1.79 1.79 1.71 1.69 1.69 1.64 1.54 1.46 1.39
1.18 1.39 1.51 1.30 0.86 0.45 0.24 0.38 0.47 0.39 0.41 0.45 0.50 0.58 0.68 0.73 0.73 0.70 0.66 0.71 0.82 0.85 0.92 1.06 1.18 1.30 1.53 1.72 1.78 1.81 1.95 2.02 1.99 2.09 2.10 2.07 2.01 1.92 1.91 1.89 1.80 1.79 1.77 1.70 1.68 1.63 1.54 1.48 1.44
1.13 1.04 0.82 1.01 0.73 0.51 0.36 0.32 0.35 0.34 0.37 0.42 0.44 0.49 0.60 0.66 0.65 0.67 0.69 0.74 0.79 0.82 0.86 0.94 1.04 1.08 1.19 1.40 1.52 1.62 1.68 1.69 1.63 1.63 1.66 1.71 1.77 1.79 1.76 1.78 1.71 1.65 1.63 1.62 1.61 1.57 1.49 1.43 1.37
0.99 0.86 0.92 1.21 1.01 0.73 0.39 0.30 0.44 0.42 0.42 0.42 0.43 0.45 0.54 0.61 0.65 0.67 0.69 0.68 0.69 0.74 0.77 0.84 0.88 0.89 0.95 1.07 1.16 1.32 1.43 1.42 1.44 1.44 1.40 1.39 1.38 1.43 1.48 1.52 1.53 1.49 1.47 1.46 1.45 1.42 1.40 1.39 1.29
0.77 0.87 0.96 0.97 0.80 0.83 0.56 0.40 0.40 0.42 0.43 0.45 0.50 0.50 0.55 0.59 0.66 0.70 0.73 0.70 0.68 0.73 0.76 0.77 0.73 0.75 0.79 0.87 0.93 1.00 1.13 1.20 1.24 1.26 1.18 1.18 1.14 1.11 1.15 1.16 1.19 1.24 1.26 1.28 1.27 1.26 1.27 1.28 1.24
0.58 0.60 0.75 1.01 0.77 0.64 0.59 0.40 0.28 0.33 0.37 0.43 0.51 0.51 0.51 0.54 0.58 0.63 0.69 0.69 0.69 0.72 0.75 0.78 0.71 0.69 0.71 0.76 0.78 0.82 0.91 1.03 1.08 1.12 1.06 1.00 1.01 0.95 0.94 0.94 0.94 0.95 0.98 1.03 1.06 1.05 1.07 1.11 1.11